SIA24 WSSS-KEWR

Flight info

Callsign SIA24
Flight time N/A
Altitude 35000
Route TOMAN3A TOMAN L625 AKMON/K0930F350 L625 ANOKI/N0501F350 L625 ARESI/N0498F360 L625 MEVIN/N0497F350 B462 MAGMA/N0492F370 B462 KAZIK Y59 AZAMA Y57 PUTER A590 POXED/N0477F390 A590 PUGGY/N0488F410 A590 HAMND DCT TED J511 GKN J124 ORT DCT 63N140W 63N130W 62N120W 59N110W 5530N10000W DCT MISAX DCT SSM DCT BUF DCT HNK FLOSI4
Aircraft A359/H-SDE1E2E3GHIJ1J2J3J5M1P2RWXYZ/LB1D1

Departure

Time N/A
Airport Singapore Changi Airport (WSSS)

Arrival

Time 2026-04-21 13:07
Airport Newark Liberty International Airport (KEWR)
Time Latitude Longitude Altitude Speed Heading
2026-04-21 12:11 44.79134 -81.53510 41184 ft 544 kts 130°
2026-04-21 12:12 44.74190 -81.45448 41184 ft 544 kts 130°
2026-04-21 12:12 44.69240 -81.37400 41179 ft 544 kts 130°
2026-04-21 12:13 44.64289 -81.29374 41179 ft 544 kts 130°
2026-04-21 12:13 44.59328 -81.21355 41186 ft 543 kts 130°
2026-04-21 12:14 44.54367 -81.13356 41186 ft 543 kts 130°
2026-04-21 12:14 44.49399 -81.05369 41200 ft 543 kts 130°
2026-04-21 12:15 44.44426 -80.97398 41208 ft 543 kts 131°
2026-04-21 12:15 44.39450 -80.89444 41238 ft 544 kts 131°
2026-04-21 12:16 44.34464 -80.81497 41227 ft 543 kts 131°
2026-04-21 12:16 44.29476 -80.73568 41240 ft 543 kts 131°
2026-04-21 12:17 44.24482 -80.65653 41234 ft 543 kts 131°
2026-04-21 12:17 44.19484 -80.57752 41243 ft 543 kts 131°
2026-04-21 12:18 44.14488 -80.49876 41251 ft 542 kts 131°
2026-04-21 12:18 44.09484 -80.42012 41265 ft 543 kts 131°
2026-04-21 12:19 44.04477 -80.34162 41255 ft 543 kts 131°
2026-04-21 12:19 43.99461 -80.26321 41267 ft 542 kts 131°
2026-04-21 12:20 43.94446 -80.18503 41279 ft 542 kts 131°
2026-04-21 12:20 43.89425 -80.10696 41278 ft 542 kts 131°
2026-04-21 12:21 43.84400 -80.02906 41289 ft 542 kts 131°
2026-04-21 12:21 43.79370 -79.95129 41293 ft 542 kts 131°
2026-04-21 12:22 43.74332 -79.87360 41297 ft 542 kts 131°
2026-04-21 12:22 43.69289 -79.79606 41315 ft 542 kts 131°
2026-04-21 12:23 43.64236 -79.71856 41308 ft 543 kts 131°
2026-04-21 12:23 43.59174 -79.64115 41316 ft 543 kts 132°
2026-04-21 12:24 43.54104 -79.56381 41313 ft 543 kts 132°
2026-04-21 12:24 43.49030 -79.48663 41322 ft 543 kts 132°
2026-04-21 12:25 43.43958 -79.40968 41319 ft 543 kts 132°
2026-04-21 12:25 43.38908 -79.33328 41317 ft 543 kts 132°
2026-04-21 12:26 43.33827 -79.25661 41317 ft 543 kts 132°
2026-04-21 12:26 43.28736 -79.18000 41311 ft 542 kts 132°
2026-04-21 12:27 43.23646 -79.10360 41313 ft 542 kts 132°
2026-04-21 12:27 43.18556 -79.02741 41307 ft 542 kts 132°
2026-04-21 12:28 43.13464 -78.95138 41309 ft 541 kts 132°
2026-04-21 12:28 43.08371 -78.87556 41304 ft 541 kts 132°
2026-04-21 12:29 43.03280 -78.79996 41314 ft 540 kts 132°
2026-04-21 12:29 42.99049 -78.73728 41333 ft 540 kts 133°
2026-04-21 12:30 42.94181 -78.65944 41340 ft 539 kts 123°
2026-04-21 12:30 42.92345 -78.61512 41321 ft 535 kts 112°
2026-04-21 12:30 42.90967 -78.56808 41325 ft 534 kts 108°
2026-04-21 12:31 42.88173 -78.45607 41368 ft 534 kts 105°
2026-04-21 12:31 42.86273 -78.37615 41354 ft 534 kts 105°
2026-04-21 12:32 42.83955 -78.28003 41370 ft 534 kts 106°
2026-04-21 12:32 42.81602 -78.18414 41350 ft 534 kts 106°
2026-04-21 12:33 42.79229 -78.08835 41369 ft 534 kts 106°
2026-04-21 12:33 42.76848 -77.99263 41368 ft 534 kts 106°
2026-04-21 12:34 42.74459 -77.89696 41392 ft 534 kts 106°
2026-04-21 12:34 42.72061 -77.80127 41396 ft 534 kts 106°
2026-04-21 12:35 42.69656 -77.70570 41385 ft 534 kts 106°
2026-04-21 12:35 42.67260 -77.61085 41382 ft 534 kts 107°
2026-04-21 12:36 42.64836 -77.51532 41389 ft 535 kts 107°
2026-04-21 12:36 42.62405 -77.41985 41392 ft 535 kts 107°
2026-04-21 12:37 42.59965 -77.32446 41384 ft 535 kts 107°
2026-04-21 12:37 42.57519 -77.22917 41381 ft 535 kts 107°
2026-04-21 12:38 42.55061 -77.13383 41380 ft 535 kts 107°
2026-04-21 12:38 42.52595 -77.03855 41376 ft 536 kts 107°
2026-04-21 12:39 42.50119 -76.94330 41382 ft 536 kts 107°
2026-04-21 12:39 42.47637 -76.84815 41402 ft 536 kts 107°
2026-04-21 12:40 42.45147 -76.75310 41392 ft 536 kts 107°
2026-04-21 12:40 42.42647 -76.65804 41388 ft 535 kts 107°
2026-04-21 12:41 42.40143 -76.56319 41384 ft 535 kts 107°
2026-04-21 12:41 42.37630 -76.46835 41393 ft 536 kts 107°
2026-04-21 12:42 42.35127 -76.37428 41387 ft 536 kts 107°
2026-04-21 12:42 42.32598 -76.27957 41391 ft 535 kts 108°
2026-04-21 12:43 42.30061 -76.18498 41378 ft 535 kts 108°
2026-04-21 12:43 42.27516 -76.09045 41367 ft 536 kts 108°
2026-04-21 12:44 42.24962 -75.99592 41368 ft 536 kts 108°
2026-04-21 12:44 42.22399 -75.90145 41399 ft 536 kts 108°
2026-04-21 12:45 42.19829 -75.80707 41398 ft 536 kts 108°
2026-04-21 12:45 42.17252 -75.71279 41402 ft 536 kts 108°
2026-04-21 12:46 42.14663 -75.61841 41402 ft 537 kts 108°
2026-04-21 12:46 42.12066 -75.52414 41403 ft 537 kts 108°
2026-04-21 12:47 42.09461 -75.42992 41405 ft 537 kts 108°
2026-04-21 12:47 42.05776 -75.34296 41414 ft 539 kts 134°
2026-04-21 12:47 42.02926 -75.31052 41418 ft 536 kts 149°
2026-04-21 12:48 41.99604 -75.28852 41411 ft 531 kts 165°
2026-04-21 12:48 41.96022 -75.27823 41410 ft 523 kts 180°
2026-04-21 12:48 41.92404 -75.27766 41408 ft 520 kts 185°
2026-04-21 12:49 41.85144 -75.27729 41411 ft 523 kts 183°
2026-04-21 12:49 41.77855 -75.27198 41415 ft 526 kts 179°
2026-04-21 12:50 41.70566 -75.26299 41415 ft 526 kts 178°
2026-04-21 12:50 41.63326 -75.25291 41411 ft 527 kts 178°
2026-04-21 12:51 41.56469 -75.24306 41417 ft 527 kts 178°
2026-04-21 12:51 41.49174 -75.23249 41416 ft 527 kts 178°
2026-04-21 12:52 41.41897 -75.22085 41413 ft 530 kts 173°
2026-04-21 12:52 41.38343 -75.20897 41118 ft 521 kts 164°
2026-04-21 12:52 41.35023 -75.19029 40216 ft 518 kts 153°
2026-04-21 12:52 41.31947 -75.16469 38789 ft 526 kts 147°
2026-04-21 12:53 41.28931 -75.13647 37007 ft 534 kts 145°
2026-04-21 12:53 41.25885 -75.10765 35321 ft 541 kts 145°
2026-04-21 12:53 41.22793 -75.07855 33499 ft 548 kts 145°
2026-04-21 12:53 41.19663 -75.04925 31591 ft 553 kts 144°
2026-04-21 12:54 41.16502 -75.01977 29506 ft 558 kts 144°
2026-04-21 12:54 41.13317 -74.99015 27602 ft 557 kts 144°
2026-04-21 12:54 41.10162 -74.96087 26035 ft 549 kts 144°
2026-04-21 12:54 41.07064 -74.93217 24650 ft 538 kts 144°
2026-04-21 12:55 41.04030 -74.90410 23145 ft 527 kts 144°
2026-04-21 12:55 41.01060 -74.87664 21751 ft 512 kts 144°
2026-04-21 12:55 40.98182 -74.85007 20450 ft 496 kts 145°
2026-04-21 12:55 40.95392 -74.82433 19151 ft 482 kts 145°
2026-04-21 12:56 40.92685 -74.79939 18068 ft 464 kts 145°
2026-04-21 12:56 40.90120 -74.77578 17510 ft 435 kts 145°
2026-04-21 12:56 40.87710 -74.75363 17025 ft 408 kts 145°
2026-04-21 12:56 40.85454 -74.73290 16608 ft 383 kts 145°
2026-04-21 12:57 40.83320 -74.71333 16096 ft 365 kts 145°
2026-04-21 12:57 40.81264 -74.69447 15394 ft 356 kts 145°
2026-04-21 12:57 40.79250 -74.67602 14648 ft 350 kts 145°
2026-04-21 12:57 40.77268 -74.65786 13851 ft 344 kts 145°
2026-04-21 12:58 40.75321 -74.64004 13022 ft 338 kts 146°
2026-04-21 12:58 40.73408 -74.62255 12240 ft 332 kts 146°
2026-04-21 12:58 40.71528 -74.60537 11459 ft 326 kts 146°
2026-04-21 12:58 40.69676 -74.58846 10692 ft 321 kts 146°
2026-04-21 12:59 40.67856 -74.57184 9897 ft 316 kts 146°
2026-04-21 12:59 40.66087 -74.55514 9051 ft 310 kts 141°
2026-04-21 12:59 40.64673 -74.53422 8275 ft 303 kts 124°
2026-04-21 12:59 40.63497 -74.51150 7525 ft 297 kts 122°
2026-04-21 13:00 40.62384 -74.48928 6820 ft 292 kts 122°
2026-04-21 13:00 40.61272 -74.46717 6020 ft 286 kts 122°
2026-04-21 13:00 40.60180 -74.44558 5295 ft 281 kts 123°
2026-04-21 13:00 40.59107 -74.42448 4538 ft 275 kts 123°
2026-04-21 13:01 40.58060 -74.40392 3977 ft 264 kts 123°
2026-04-21 13:01 40.57034 -74.38384 3748 ft 266 kts 123°
2026-04-21 13:01 40.56008 -74.36379 3523 ft 261 kts 123°
2026-04-21 13:01 40.55006 -74.34421 3264 ft 252 kts 123°
2026-04-21 13:02 40.54053 -74.32560 3137 ft 239 kts 123°
2026-04-21 13:02 40.53187 -74.30758 2999 ft 227 kts 116°
2026-04-21 13:02 40.53423 -74.27102 2738 ft 200 kts 47°
2026-04-21 13:03 40.54381 -74.25873 2673 ft 185 kts 35°
2026-04-21 13:03 40.55491 -74.25182 2592 ft 168 kts 21°
2026-04-21 13:03 40.56520 -74.24597 2494 ft 154 kts 26°
2026-04-21 13:03 40.57439 -74.23994 2416 ft 142 kts 26°
2026-04-21 13:04 40.58303 -74.23437 2265 ft 136 kts 26°
2026-04-21 13:04 40.59147 -74.22898 2074 ft 134 kts 25°
2026-04-21 13:04 40.59980 -74.22369 1872 ft 131 kts 25°
2026-04-21 13:04 40.60796 -74.21850 1691 ft 129 kts 25°
2026-04-21 13:05 40.61596 -74.21342 1514 ft 126 kts 22°
2026-04-21 13:05 40.62371 -74.20850 1347 ft 122 kts 24°
2026-04-21 13:05 40.63129 -74.20367 1165 ft 120 kts 24°
2026-04-21 13:05 40.63882 -74.19890 980 ft 121 kts 20°
2026-04-21 13:06 40.64645 -74.19431 840 ft 120 kts 22°
2026-04-21 13:06 40.65391 -74.18948 695 ft 120 kts 27°
2026-04-21 13:06 40.66124 -74.18449 530 ft 118 kts 19°
2026-04-21 13:06 40.66877 -74.17992 363 ft 120 kts 21°
2026-04-21 13:07 40.67633 -74.17499 155 ft 120 kts 22°
2026-04-21 13:07 40.68367 -74.17036 34 ft 114 kts 23°
2026-04-21 13:07 40.68987 -74.16644 27 ft 76 kts 26°
2026-04-21 13:07 40.69242 -74.16483 30 ft 25 kts 22°
2026-04-21 13:08 40.69352 -74.16450 32 ft 24 kts
2026-04-21 13:08 40.69489 -74.16496 30 ft 5 kts 289°
2026-04-21 13:08 40.69448 -74.16576 29 ft 13 kts 200°
2026-04-21 13:08 40.69298 -74.16666 31 ft 19 kts 206°
2026-04-21 13:09 40.69132 -74.16771 29 ft 31 kts 206°
2026-04-21 13:09 40.68946 -74.16890 27 ft 31 kts 205°
2026-04-21 13:09 40.68761 -74.17007 27 ft 25 kts 206°
2026-04-21 13:09 40.68594 -74.17114 29 ft 28 kts 206°
2026-04-21 13:10 40.68461 -74.17231 32 ft 12 kts 251°
2026-04-21 13:10 40.68496 -74.17383 30 ft 26 kts 295°
2026-04-21 13:10 40.68470 -74.17543 31 ft 18 kts 223°
2026-04-21 13:10 40.68349 -74.17706 28 ft 25 kts 216°
2026-04-21 13:11 40.68176 -74.17819 27 ft 29 kts 205°
2026-04-21 13:11 40.67989 -74.17938 28 ft 28 kts 205°
2026-04-21 13:11 40.67809 -74.18053 30 ft 27 kts 205°
2026-04-21 13:11 40.67696 -74.18138 31 ft 0 kts 242°
2026-04-21 13:12 40.67718 -74.18273 30 ft 26 kts 288°
2026-04-21 13:12 40.67693 -74.18377 29 ft 6 kts 217°
2026-04-21 13:12 40.67676 -74.18390 29 ft 0 kts 207°